Regional Weather Roundup
Issued by NWS

Home | Current Version | Previous Version | Text Only | Print | Product List | Glossary Off
Versions: 1 2 3 4 5 6 7 8 9 10 11 12 13 14 15 16 17 18 19 20 21 22 23 24 25 26 27 28 29 30 31 32 33 34 35 36 37 38 39 40 41 42 43 44 45 46 47 48 49 50

803
ASUS43 KLSX 182057
RWRMO

WEATHER SUMMARY FOR MISSOURI
NATIONAL WEATHER SERVICE SPRINGFIELD MO
300 PM CST SUN FEB 18 2018

NOTE: "FAIR" INDICATES FEW OR NO CLOUDS BELOW 12,000 FEET WITH NO
       SIGNIFICANT WEATHER AND/OR OBSTRUCTIONS TO VISIBILITY.
       CURRENT SKY AND/OR WEATHER CONDITIONS ARE NOT AVAILABLE FOR
       CHILLICOTHE AND FARMINGTON.

MOZ001>031-035>038-043-044-053-054-182200-
...NORTHERN AND WESTERN MISSOURI...

CITY           SKY/WX    TMP DP  RH WIND       PRES   REMARKS
KANSAS CTY INT PTSUNNY   57  29  34 S24G37    29.75F
LEE`S SUMMIT   MOSUNNY   54  31  41 S21G35    29.83F
ST JOSEPH      MOSUNNY   55  28  35 S28G40    29.71F
CHILLICOTHE      N/A     57  27  31 S17G32    29.80F

$$
MOZ066>068-077>081-088>096-101>105-182200-
...SOUTHWEST MISSOURI...

CITY           SKY/WX    TMP DP  RH WIND       PRES   REMARKS
SPRINGFIELD    MOSUNNY   53  30  41 S22G32    29.92F
JOPLIN         CLOUDY    59  37  44 S17       29.89F
BRANSON        CLOUDY    55  32  41 SE15G21   29.98F

$$
MOZ032>034-039>042-045>050-055>058-069>072-182200-
...CENTRAL MISSOURI...

CITY           SKY/WX    TMP DP  RH WIND       PRES   REMARKS
COLUMBIA       NOT AVBL
JEFFERSON CITY MOSUNNY   56  21  25 S24G33    29.95F
ROLLA          CLOUDY    52  28  39 S14G25    29.98F
SEDALIA        MOSUNNY   57  30  35 S25G31    29.90F
WARRENSBURG    MOSUNNY   54  28  37 S15G32    29.87F

$$
MOZ051-052-059>065-182200-
...EAST CENTRAL MISSOURI...

CITY           SKY/WX    TMP DP  RH WIND       PRES   REMARKS
ST LOUIS INTL  CLOUDY    53  26  35 SE18G28   30.03F

$$
MOZ072>076-082>087-097>100-106>115-182200-
...SOUTH CENTRAL AND SOUTHEAST MISSOURI...

CITY           SKY/WX    TMP DP  RH WIND       PRES   REMARKS
CAPE GIRARDEAU FAIR      53  37  54 SE13      30.11F
POPLAR BLUFF   FAIR      51  38  60 SE10      30.11F
WEST PLAINS    PTSUNNY   50  30  46 S14G24    30.04F

$$



USA.gov is the U.S. government's official web portal to all federal, state and local government web resources and services.